Air Sicilia Virtual Airways - Route

Air Sicilia Virtual Airways - SIC502C

( IT ) LICJ - 10:00
Falcone–Borsellino Airport
PALERMO ( PMO )
plane_to ( LU ) ELLX - 2:16
Luxembourg-Findel International Airport
LUXEMBOURG ( LUX )

AIRPORT NEAR NAVIGATION AIDS

Type Name Frequency
VOR-DME Palermo 112300 KHZ
NDB Palermo 356 KHZ
VOR-DME Raisi 113000 KHZ
NDB Raisi 329 KHZ

METAR / TAF
LICJ 160050Z 18018KT CAVOK 22/09 Q1009

RUNWAY INFORMATION

Runway Runway length Runway width Runway elevation Runway displaced threshold Runway heading
02 6804 148 42 10 24
20 6804 148 22 10 204
07 10912 197 33 404 66.9
25 10912 197 50 679 246.9

AIRPORT FREQUENCIES

Type Name Frequency
APP APP 120.2 MHZ
GND RAISI GND 121.625 MHZ
TWR RAISI TWR 119.05 MHZ

AIRPORT NEAR NAVIGATION AIDS

Type Name Frequency
NDB Luxembourg 369 KHZ
VOR-DME Luxembourg 112250 KHZ
NDB Luxembourg 346 KHZ

METAR / TAF
ELLX 160050Z AUTO 07003KT 9999 NCD 00/M01 Q1004 NOSIG

RUNWAY INFORMATION

Runway Runway length Runway width Runway elevation Runway displaced threshold Runway heading
06 13123 197 1158 0 60
24 13123 197 1214 0 240

AIRPORT FREQUENCIES

Type Name Frequency
APP APP 118.9 MHZ
ATIS ATIS 135.55 MHZ
TWR TWR 118.1 MHZ

Flightplan

Air Sicilia Virtual Airways Fleets

AVAILABLE AIRCRAFTS for route at this time in Falcone–Borsellino Airport
A319 - Airbus A319
( UE ) Airbus

Aircraft in fleet: 2

749.21 NM

Distance in nautical miles.

€ 210,00

Ticket price for this flight.

2.16 h.

Estimated flight time.



12-11-2018
Aerosoft Airport Rio de Janeiro International V2.0 XP

L'Aeroporto Internazionale di Rio de Janeiro-Galeão (IATA: GIG, ICAO: SBGL), costruito nel 1952 nel quartiere di Ilha do Governador ed intitolato al musicista Antônio Carlos Jobim, è il principale aeroporto internazio ....


15-10-2018
Aerosoft A320 Family professional

La gamma di aeromobili A320 è una delle più comuni nei cieli. Questi aerei di linea a doppio-getto a corto e medio raggio si sono dimostrati convenienti, affidabili e prontamente disponibili, rendendoli le opzioni migl ....


10-10-2018
Motore critico ( Critical Engine )

Il motore critico di un velivolo ad ala fissa multi-motore è il motore che, in caso di guasto, influirebbe negativamente sulle prestazioni o sulla capacità di manovra di un aereo. Sui velivoli ad elica, vi è un ....


04-10-2018
Aerosoft Dortmund XP

Scopri il centro della regione della Ruhr su XPlane 11 - lo scenario Dortmund XP è una ricostruzione completa della città di Dortmund per il simulatore di volo targato Laminar. Oltre all'intera area urbana di Dortmu ....


07-08-2018
Aerosoft Professional Flight Planner PFPX

PFPX - Professional Flight Planner X - è un nuovo ed innovativo strumento di pianificazione del volo sviluppato da piloti e dispatcher del mondo reale. È un'aggiunta preziosa e realistica alla tua esperienza di simulaz ....